カタログに戻る

DELTA 1 DEB

運用中LEO
NORAD 10872·DEBRIS·🇺🇸 United States

打ち上げ Jul 29, 1976 から Vandenberg Space Force Base

Loading…

次のパス (今後24時間)

TLE

最新Source: Space-Track

元期: Sep 13, 2026, 11:15 UTC

1 10872U 76077DA  26256.46934687  .00000057  00000-0  84122-3 0  9995
2 10872 101.4777 255.4535 0098129 208.7152 307.3369 12.27181530242706

AllMySatでDELTA 1 DEBをリアルタイム追跡

Download on the App Store